Ekspress-6

operational
NORAD ID: 24435 Int'l Des: 1996-058 Owner: GPKS Country: RU
MEOCIRCULAR

About Ekspress-6

Description loading...

Live Position

Loading 3D Globe...

Upcoming Passes

Altitude History

Altitude vs Time

uPlot chart will show altitude changes over time

Two-Line Element Set

1 24435U 96058A 26060.01271689 -.00000153 00000-0 00000+0 0 9993
2 24435 14.5792 355.1813 0011160 348.2585 256.9492 1.00334661107726
Epoch: Mar 1, 2026 • Age: 54 hours

Current Status

Altitude 35724.9 km
Velocity 3.08 km/s
Sub-Earth Point -7.27°S, 78.27°E
Launch Date Sep 26, 1996
Age 29.4 years
Type other

Technical Details

Classification Payload
Mass 2500.00 kg
Dry Mass 2200.00 kg
Total Mass 2500.00 kg
Length 2.00 m
Diameter 2.00 m
Span 27.00 m
Shape Cyl + 2 Pan
Manufacturer NPOPMR
Bus Type Ekspress
Phase Status In Orbit
Owner/State GPKS/RU

Large Constellations

Loading constellations...